Location: Mountain_View
(35.6670°N, 81.4000°W)
Time: 12:48:28
(UTC-04:00)

Amateur Radio Satellites - All Passes

Search period start: 29 July 2014 12:18
Search period end: 30 July 2014 12:18
Location: Mountain_View, 35.6670°N, 81.4000°W

Satellite Date Start Highest point End Downlink Frequencies (MHz)
Time Altitude Azimuth
FUNcube-1 29 Jul 12:26:45 12:30:35 36° 287° (WNW) 12:34:27 145.950 - 145.970 MHz USB
HO-68 29 Jul 12:47:56 12:50:30 12° 305° (NW) 12:53:05 435.675 MHz FM
SO-50 29 Jul 12:50:46 12:55:11 68° 117° (ESE) 12:59:40 436.795 FM
Oscar 16 29 Jul 12:57:46 13:00:33 15° 64° (ENE) 13:03:20 437.025 USB, Beacon 2401.1428
RS-15 29 Jul 12:58:00 13:07:59 39° 107° (ESE) 13:17:41 29.354 - 29.394 USB, Beacon 29.352 USB
ITAMSAT 1 29 Jul 13:21:26 13:22:26 11° 61° (ENE) 13:23:26 435.822 SSB
Uribyol 2 29 Jul 13:38:11 13:41:31 18° 65° (ENE) 13:44:51 436.500 FM
AO-27 29 Jul 13:38:16 13:41:31 17° 64° (ENE) 13:44:46 436.795 MHz FM
Gurwin Techsat 1B 29 Jul 14:04:48 14:06:30 12° 62° (ENE) 14:08:12 435.225 FM
Oscar 19 29 Jul 14:05:48 14:10:52 68° 75° (ENE) 14:15:57 437.125 CW, 437.150 USB
JAS-1B 29 Jul 14:08:07 14:15:47 33° 61° (ENE) 14:24:05 435.800 - 435.900 CW/SSB
AO-Echo 29 Jul 14:18:44 14:23:41 42° 72° (ENE) 14:28:41 ?
SO-50 29 Jul 14:33:58 14:36:13 14° 315° (NW) 14:38:29 436.795 FM
Oscar 16 29 Jul 14:34:20 14:39:21 59° 259° (W) 14:44:25 437.025 USB, Beacon 2401.1428
UOSAT-12 29 Jul 14:49:03 14:53:36 78° 118° (ESE) 14:58:17 437.025 FM, 437.400 FM
ITAMSAT 1 29 Jul 14:55:56 15:01:09 86° 257° (WSW) 15:06:24 435.822 SSB
RS-15 29 Jul 15:09:03 15:19:52 55° 306° (NW) 15:30:33 29.354 - 29.394 USB, Beacon 29.352 USB
AO-27 29 Jul 15:15:27 15:20:33 54° 259° (W) 15:25:40 436.795 MHz FM
Uribyol 2 29 Jul 15:15:30 15:20:33 51° 260° (W) 15:25:37 436.500 FM
KITSAT 1 29 Jul 15:15:46 15:23:06 36° 52° (NE) 15:30:22 435.175 FM
TMSAT-1 29 Jul 15:16:06 15:21:03 42° 71° (ENE) 15:26:01 436.925 FM
Gurwin Techsat 1B 29 Jul 15:40:24 15:45:43 81° 257° (WSW) 15:51:03 435.225 FM
AO-7 29 Jul 15:43:26 15:50:26 31° 60° (ENE) 15:57:25 29.400 - 29.500 MHz
Oscar 19 29 Jul 15:49:01 15:50:38 11° 269° (W) 15:52:14 437.125 CW, 437.150 USB
JAS-1B 29 Jul 15:57:01 16:05:32 61° 261° (W) 16:15:12 435.800 - 435.900 CW/SSB
AO-Echo 29 Jul 15:58:39 16:02:34 21° 266° (W) 16:06:31 ?
Uosat F 29 Jul 16:16:42 16:21:14 35° 70° (ENE) 16:25:47 435.120 FM
UOSAT-12 29 Jul 16:32:11 16:34:20 13° 316° (NW) 16:36:29 437.025 FM, 437.400 FM
Saudisat 1A 29 Jul 16:34:18 16:38:07 28° 53° (NE) 16:41:53 436.775 MHz
TMSAT-1 29 Jul 16:57:12 17:01:06 21° 266° (W) 17:05:01 436.925 FM
KITSAT 1 29 Jul 17:10:58 17:18:37 48° 250° (WSW) 17:26:13 435.175 FM
OPAL 29 Jul 17:12:43 17:17:38 48° 102° (ESE) 17:22:36 ?
JAS-2 29 Jul 17:13:44 17:17:53 16° 60° (ENE) 17:21:55 435.800 - 435.900 CW/SSB, 435.910 FM
RS-15 29 Jul 17:28:56 17:35:29 17° 335° (NNW) 17:42:04 29.354 - 29.394 USB, Beacon 29.352 USB
AO-7 29 Jul 17:34:35 17:42:43 56° 257° (WSW) 17:50:55 29.400 - 29.500 MHz
Uosat F 29 Jul 17:56:05 18:00:02 23° 264° (W) 18:04:01 435.120 FM
Saudisat 1A 29 Jul 18:13:56 18:17:35 26° 248° (WSW) 18:21:13 436.775 MHz
Hamsat 29 Jul 18:18:08 18:22:03 41° 74° (ENE) 18:26:00 145.90 MHz
OPAL 29 Jul 18:52:42 18:56:08 19° 296° (WNW) 18:59:34 ?
JAS-2 29 Jul 18:54:06 19:01:58 84° 75° (ENE) 19:09:23 435.800 - 435.900 CW/SSB, 435.910 FM
STRAND 1 29 Jul 19:37:09 19:41:47 34° 98° (E) 19:46:22 ?
RS-15 29 Jul 19:49:47 19:54:41 14° 14° (NNE) 19:59:37 29.354 - 29.394 USB, Beacon 29.352 USB
SO-67 29 Jul 19:52:50 19:56:17 84° 78° (ENE) 19:59:46 435.3500 MHz FM
Hamsat 29 Jul 19:56:15 19:58:12 13° 268° (W) 20:00:09 145.90 MHz
JAS-2 29 Jul 20:42:50 20:47:28 17° 269° (W) 20:52:00 435.800 - 435.900 CW/SSB, 435.910 FM
MaSat-1 29 Jul 20:50:29 20:53:26 21° 101° (ESE) 20:56:45 437.345 MHz
STRAND 1 29 Jul 21:16:42 21:20:45 24° 293° (WNW) 21:24:47 ?
HO-68 29 Jul 21:21:42 21:28:45 63° 71° (ENE) 21:35:48 435.675 MHz FM
Oscar 11 29 Jul 21:22:15 21:24:34 14° 67° (ENE) 21:26:54 145.825 FM, Beacon 2401.500 USB
SO-50 29 Jul 21:25:20 21:29:30 29° 53° (NE) 21:33:42 436.795 FM
RS-15 29 Jul 22:01:35 22:11:39 38° 47° (NE) 22:21:58 29.354 - 29.394 USB, Beacon 29.352 USB
UKube-1 29 Jul 22:11:39 22:16:00 68° 258° (WSW) 22:20:22 145.840 MHz, 145.915 MHz
MaSat-1 29 Jul 22:26:55 22:30:28 29° 302° (WNW) 22:34:32 437.345 MHz
Oscar 11 29 Jul 22:56:17 23:00:22 42° 261° (W) 23:04:28 145.825 FM, Beacon 2401.500 USB
SO-50 29 Jul 23:05:52 23:10:00 29° 248° (WSW) 23:14:09 436.795 FM
HO-68 29 Jul 23:11:39 23:16:50 21° 266° (W) 23:22:02 435.675 MHz FM
FUNcube-1 29 Jul 23:19:51 23:24:11 68° 259° (W) 23:28:25 145.950 - 145.970 MHz USB
UOSAT-12 29 Jul 23:21:47 23:25:58 31° 53° (NE) 23:30:06 437.025 FM, 437.400 FM
ISS 29 Jul 23:39:48 23:43:07 81° 318° (NW) 23:46:28 145.800 FM
Sapphire 30 Jul 00:13:22 00:17:39 25° 107° (ESE) 00:21:57 437.095 MHz 1200 baud AX-25 AFSK
RS-15 30 Jul 00:13:40 00:24:30 62° 248° (WSW) 00:35:47 29.354 - 29.394 USB, Beacon 29.352 USB
PCSat 30 Jul 00:45:31 00:50:45 55° 112° (ESE) 00:56:02 145.825 MHz
UOSAT-12 30 Jul 01:02:04 01:06:00 27° 249° (WSW) 01:09:52 437.025 FM, 437.400 FM
ISS 30 Jul 01:18:45 01:20:18 13° 335° (NNW) 01:21:51 145.800 FM
Sapphire 30 Jul 01:55:47 02:00:48 39° 302° (WNW) 02:05:52 437.095 MHz 1200 baud AX-25 AFSK
AO-40 30 Jul 02:07:20 03:59:56 32° 215° (SW) 08:15:06 Beacon 2401.320
Oscar 19 30 Jul 02:20:46 02:25:19 31° 97° (E) 02:29:50 437.125 CW, 437.150 USB
AO-Echo 30 Jul 02:30:35 02:33:40 16° 92° (E) 02:36:40 ?
PCSat 30 Jul 02:30:35 02:34:30 20° 309° (NW) 02:38:26 145.825 MHz
Oscar 16 30 Jul 02:48:53 02:54:01 63° 101° (ESE) 02:59:08 437.025 USB, Beacon 2401.1428
ITAMSAT 1 30 Jul 03:12:04 03:17:00 43° 99° (E) 03:21:53 435.822 SSB
Uribyol 2 30 Jul 03:31:05 03:36:15 73° 102° (ESE) 03:41:23 436.500 FM
AO-27 30 Jul 03:31:24 03:36:35 70° 102° (ESE) 03:41:43 436.795 MHz FM
TMSAT-1 30 Jul 03:35:38 03:39:34 21° 94° (E) 03:43:30 436.925 FM
PANSAT 30 Jul 03:46:59 03:47:58 11° 159° (SSE) 03:48:56 not established
JAS-1B 30 Jul 03:47:33 03:56:37 61° 99° (E) 04:04:13 435.800 - 435.900 CW/SSB
Gurwin Techsat 1B 30 Jul 03:59:45 04:04:57 52° 100° (E) 04:10:05 435.225 FM
Oscar 19 30 Jul 04:00:11 04:04:31 28° 291° (WNW) 04:08:50 437.125 CW, 437.150 USB
AO-Echo 30 Jul 04:07:53 04:12:41 46° 288° (WNW) 04:17:19 ?
OPAL 30 Jul 04:24:59 04:29:51 62° 72° (ENE) 04:34:44 ?
Uosat F 30 Jul 04:29:05 04:31:23 13° 92° (E) 04:33:40 435.120 FM
Oscar 16 30 Jul 04:30:08 04:32:48 14° 296° (WNW) 04:35:29 437.025 USB, Beacon 2401.1428
ITAMSAT 1 30 Jul 04:52:27 04:56:08 20° 294° (WNW) 04:59:49 435.822 SSB
Uribyol 2 30 Jul 05:13:03 05:15:03 12° 298° (WNW) 05:17:03 436.500 FM
AO-27 30 Jul 05:13:13 05:15:27 13° 298° (WNW) 05:17:40 436.795 MHz FM
TMSAT-1 30 Jul 05:14:40 05:19:36 41° 289° (WNW) 05:24:31 436.925 FM
PANSAT 30 Jul 05:24:26 05:27:33 23° 171° (S) 05:30:40 not established
JAS-1B 30 Jul 05:38:48 05:46:20 30° 300° (WNW) 05:53:02 435.800 - 435.900 CW/SSB
AO-7 30 Jul 05:39:17 05:47:32 63° 104° (ESE) 05:55:42 29.400 - 29.500 MHz
Gurwin Techsat 1B 30 Jul 05:41:01 05:44:27 18° 295° (WNW) 05:47:52 435.225 FM
KITSAT 1 30 Jul 05:41:01 05:48:07 35° 107° (ESE) 05:55:14 435.175 FM
Uosat F 30 Jul 06:05:34 06:10:30 59° 287° (WNW) 06:15:24 435.120 FM
OPAL 30 Jul 06:07:09 06:09:05 12° 266° (W) 06:11:01 ?
ISS 30 Jul 06:11:07 06:14:11 32° 35° (NE) 06:17:15 145.800 FM
Saudisat 1A 30 Jul 06:39:53 06:42:06 14° 108° (ESE) 06:44:20 436.775 MHz
MaSat-1 30 Jul 06:47:30 06:52:19 35° 60° (ENE) 06:56:51 437.345 MHz
STRAND 1 30 Jul 06:50:14 06:54:56 37° 70° (ENE) 06:59:38 ?
PANSAT 30 Jul 07:03:59 07:07:18 27° 183° (S) 07:10:37 not established
AO-7 30 Jul 07:33:04 07:39:42 28° 301° (WNW) 07:46:18 29.400 - 29.500 MHz
KITSAT 1 30 Jul 07:35:30 07:43:14 48° 305° (NW) 07:51:01 435.175 FM
Hamsat 30 Jul 07:42:15 07:46:30 61° 284° (WNW) 07:50:47 145.90 MHz
ISS 30 Jul 07:48:08 07:50:45 21° 230° (SW) 07:53:22 145.800 FM
JAS-2 30 Jul 07:53:30 07:59:19 84° 284° (WNW) 08:04:35 435.800 - 435.900 CW/SSB, 435.910 FM
Saudisat 1A 30 Jul 08:16:57 08:21:14 50° 303° (WNW) 08:25:33 436.775 MHz
MaSat-1 30 Jul 08:25:11 08:29:27 26° 257° (WSW) 08:33:26 437.345 MHz
STRAND 1 30 Jul 08:30:14 08:34:10 22° 265° (W) 08:38:08 ?
PANSAT 30 Jul 08:44:27 08:46:59 17° 196° (SSW) 08:49:32 not established
SO-67 30 Jul 08:52:37 08:55:59 49° 284° (WNW) 08:59:20 435.3500 MHz FM
HO-68 30 Jul 08:56:19 08:58:38 12° 90° (E) 09:00:56 435.675 MHz FM
Sapphire 30 Jul 09:05:04 09:07:27 13° 46° (NE) 09:09:50 437.095 MHz 1200 baud AX-25 AFSK
PCSat 30 Jul 09:36:52 09:41:17 25° 53° (NE) 09:45:40 145.825 MHz
KITSAT 1 30 Jul 09:38:28 09:40:55 11° 328° (NNW) 09:43:22 435.175 FM
UKube-1 30 Jul 10:03:29 10:07:04 25° 97° (E) 10:10:37 145.840 MHz, 145.915 MHz
HO-68 30 Jul 10:39:59 10:47:10 85° 105° (ESE) 10:54:18 435.675 MHz FM
Sapphire 30 Jul 10:46:11 10:51:38 89° 64° (ENE) 10:57:03 437.095 MHz 1200 baud AX-25 AFSK
Oscar 11 30 Jul 10:46:42 10:50:49 40° 99° (E) 10:54:54 145.825 FM, Beacon 2401.500 USB
FUNcube-1 30 Jul 11:12:17 11:15:51 27° 97° (E) 11:19:28 145.950 - 145.970 MHz USB
PCSat 30 Jul 11:19:45 11:24:49 42° 250° (WSW) 11:29:52 145.825 MHz
SO-50 30 Jul 11:39:06 11:41:52 16° 109° (ESE) 11:44:41 436.795 FM
UKube-1 30 Jul 11:39:39 11:43:09 24° 291° (WNW) 11:46:39 145.840 MHz, 145.915 MHz
